• En España
  • Lista de países
  • Para 7 días
  • Temperatura del agua
  • Mapa Satelital
  • El tiempo en el mapa
  • Informadores
  • user-avatar
    Iniciar sesión

    Tiempo cada hora Polotsk

    Hoy, 17 Agosto, Viernes

    Tiempo Temperatura Precipitaciones Viento Presión Humedad
    00:00 +15°C° 0 mm 1 mps 751 mmHg 93%
    01:00 +15°C° 0 mm 1 mps 751 mmHg 94%
    02:00 +14°C° 0 mm 1 mps 752 mmHg 95%
    03:00 +14°C° 0 mm 1 mps 752 mmHg 95%
    04:00 +14°C° 0 mm 1 mps 752 mmHg 96%
    05:00 +14°C° 0 mm 1 mps 752 mmHg 96%
    06:00 +15°C° 0 mm 1 mps 752 mmHg 91%
    07:00 +17°C° 0 mm 2 mps 752 mmHg 86%
    08:00 +19°C° 0 mm 2 mps 752 mmHg 78%
    09:00 +20°C° 0 mm 2 mps 752 mmHg 73%
    10:00 +23°C° 0 mm 2 mps 752 mmHg 68%
    11:00 +24°C° 0 mm 2 mps 753 mmHg 63%
    12:00 +25°C° 0 mm 2 mps 752 mmHg 61%
    13:00 +25°C° 0 mm 2 mps 752 mmHg 59%
    14:00 +26°C° 0 mm 2 mps 752 mmHg 57%
    15:00 +26°C° 0 mm 2 mps 752 mmHg 60%
    16:00 +25°C° 0 mm 2 mps 751 mmHg 62%
    17:00 +25°C° 0 mm 2 mps 751 mmHg 64%
    18:00 +23°C° 0 mm 2 mps 751 mmHg 71%
    19:00 +21°C° 0 mm 2 mps 751 mmHg 79%
    20:00 +19°C° 0 mm 2 mps 751 mmHg 86%
    21:00 +18°C° 0 mm 2 mps 751 mmHg 89%
    22:00 +18°C° 0 mm 2 mps 751 mmHg 91%
    23:00 +17°C° 0 mm 2 mps 751 mmHg 94%

    Mañana, 18 Agosto, Sábado

    Tiempo Temperatura Precipitaciones Viento Presión Humedad
    00:00 +17°C° 0 mm 2 mps 751 mmHg 95%
    01:00 +16°C° 0 mm 2 mps 751 mmHg 95%
    02:00 +16°C° 0 mm 2 mps 751 mmHg 96%
    03:00 +16°C° 0 mm 2 mps 751 mmHg 96%
    04:00 +16°C° 0 mm 2 mps 751 mmHg 96%
    05:00 +15°C° 0 mm 2 mps 751 mmHg 96%
    06:00 +17°C° 0 mm 2 mps 751 mmHg 91%
    07:00 +19°C° 0 mm 2 mps 751 mmHg 86%
    08:00 +20°C° 0 mm 2 mps 751 mmHg 81%
    09:00 +22°C° 0,1 mm 3 mps 751 mmHg 76%
    10:00 +24°C° 0,1 mm 3 mps 751 mmHg 72%
    11:00 +25°C° 0,1 mm 3 mps 751 mmHg 67%
    12:00 +25°C° 0,6 mm 3 mps 751 mmHg 69%
    13:00 +25°C° 0,6 mm 3 mps 751 mmHg 71%
    14:00 +25°C° 0,6 mm 3 mps 751 mmHg 72%
    15:00 +25°C° 0,5 mm 3 mps 750 mmHg 76%
    16:00 +24°C° 0,5 mm 2 mps 750 mmHg 80%
    17:00 +23°C° 0,5 mm 2 mps 750 mmHg 83%
    18:00 +21°C° 0,1 mm 2 mps 750 mmHg 86%
    19:00 +20°C° 0,1 mm 2 mps 750 mmHg 89%
    20:00 +19°C° 0,1 mm 2 mps 750 mmHg 92%
    21:00 +19°C° 0 mm 2 mps 750 mmHg 93%
    22:00 +19°C° 0 mm 2 mps 750 mmHg 94%
    23:00 +18°C° 0 mm 2 mps 750 mmHg 94%

    Pasado mañana, 19 Agosto, Domingo

    Tiempo Temperatura Precipitaciones Viento Presión Humedad
    00:00 +18°C° 0,1 mm 2 mps 750 mmHg 95%
    01:00 +18°C° 0,1 mm 2 mps 750 mmHg 95%
    02:00 +17°C° 0,1 mm 2 mps 750 mmHg 96%
    03:00 +17°C° 0,1 mm 2 mps 750 mmHg 96%
    04:00 +17°C° 0,1 mm 2 mps 749 mmHg 97%
    05:00 +17°C° 0,1 mm 2 mps 749 mmHg 97%
    06:00 +18°C° 0 mm 2 mps 749 mmHg 93%
    07:00 +19°C° 0 mm 2 mps 750 mmHg 90%
    08:00 +20°C° 0 mm 2 mps 750 mmHg 86%
    09:00 +23°C° 0,3 mm 2 mps 750 mmHg 82%
    10:00 +24°C° 0,3 mm 2 mps 749 mmHg 78%
    11:00 +25°C° 0,3 mm 3 mps 749 mmHg 73%
    12:00 +25°C° 0,6 mm 3 mps 749 mmHg 71%
    13:00 +26°C° 0,6 mm 3 mps 749 mmHg 69%
    14:00 +26°C° 0,6 mm 3 mps 749 mmHg 67%
    15:00 +25°C° 0,2 mm 3 mps 749 mmHg 65%
    16:00 +25°C° 0,2 mm 3 mps 749 mmHg 63%
    17:00 +25°C° 0,2 mm 3 mps 749 mmHg 61%
    18:00 +22°C° 0 mm 3 mps 749 mmHg 66%
    19:00 +20°C° 0 mm 2 mps 749 mmHg 71%
    20:00 +18°C° 0 mm 2 mps 749 mmHg 76%
    21:00 +17°C° 0 mm 2 mps 749 mmHg 79%
    22:00 +17°C° 0 mm 2 mps 749 mmHg 83%
    23:00 +17°C° 0 mm 2 mps 749 mmHg 86%

    20 Agosto, Lunes

    Tiempo Temperatura Precipitaciones Viento Presión Humedad
    00:00 +16°C° 0 mm 2 mps 749 mmHg 90%
    01:00 +16°C° 0 mm 2 mps 749 mmHg 93%
    02:00 +16°C° 0 mm 2 mps 749 mmHg 96%
    03:00 +16°C° 0 mm 2 mps 749 mmHg 96%
    04:00 +16°C° 0 mm 2 mps 749 mmHg 96%
    05:00 +15°C° 0 mm 2 mps 749 mmHg 97%
    06:00 +17°C° 0 mm 2 mps 749 mmHg 91%
    07:00 +18°C° 0 mm 2 mps 749 mmHg 85%
    08:00 +19°C° 0 mm 2 mps 749 mmHg 80%
    09:00 +20°C° 0 mm 3 mps 749 mmHg 74%
    10:00 +21°C° 0 mm 3 mps 749 mmHg 69%
    11:00 +24°C° 0 mm 3 mps 749 mmHg 64%
    12:00 +24°C° 0 mm 3 mps 749 mmHg 63%
    13:00 +25°C° 0 mm 3 mps 749 mmHg 61%
    14:00 +26°C° 0 mm 4 mps 748 mmHg 59%
    15:00 +25°C° 0,1 mm 3 mps 748 mmHg 62%
    16:00 +25°C° 0,1 mm 3 mps 748 mmHg 64%
    17:00 +25°C° 0,1 mm 3 mps 748 mmHg 67%
    18:00 +22°C° 0,4 mm 3 mps 748 mmHg 74%
    19:00 +21°C° 0,4 mm 2 mps 748 mmHg 81%
    20:00 +19°C° 0,4 mm 2 mps 748 mmHg 88%
    21:00 +18°C° 0,1 mm 2 mps 748 mmHg 90%
    22:00 +18°C° 0,1 mm 2 mps 748 mmHg 92%
    23:00 +17°C° 0,1 mm 2 mps 748 mmHg 94%

    21 Agosto, Martes

    Tiempo Temperatura Precipitaciones Viento Presión Humedad
    00:00 +17°C° 0 mm 2 mps 748 mmHg 95%
    01:00 +17°C° 0 mm 2 mps 748 mmHg 95%
    02:00 +17°C° 0 mm 2 mps 747 mmHg 95%
    03:00 +16°C° 0 mm 2 mps 747 mmHg 95%
    04:00 +16°C° 0 mm 2 mps 747 mmHg 96%
    05:00 +16°C° 0 mm 2 mps 747 mmHg 96%
    06:00 +17°C° 0 mm 2 mps 747 mmHg 93%
    07:00 +18°C° 0 mm 2 mps 747 mmHg 89%
    08:00 +20°C° 0 mm 2 mps 747 mmHg 86%
    09:00 +21°C° 0,5 mm 3 mps 747 mmHg 81%
    10:00 +22°C° 0,5 mm 3 mps 747 mmHg 76%
    11:00 +25°C° 0,5 mm 3 mps 747 mmHg 71%
    12:00 +25°C° 1,2 mm 4 mps 747 mmHg 71%
    13:00 +25°C° 1,2 mm 4 mps 746 mmHg 72%
    14:00 +25°C° 1,2 mm 4 mps 746 mmHg 72%
    15:00 +23°C° 0,5 mm 4 mps 746 mmHg 75%
    16:00 +24°C° 0,5 mm 3 mps 746 mmHg 78%
    17:00 +22°C° 0,5 mm 3 mps 746 mmHg 81%
    18:00 +21°C° 0,3 mm 2 mps 746 mmHg 85%
    19:00 +20°C° 0,3 mm 2 mps 746 mmHg 88%
    20:00 +19°C° 0,3 mm 2 mps 745 mmHg 91%
    21:00 +19°C° 0 mm 2 mps 745 mmHg 92%
    22:00 +18°C° 0 mm 2 mps 745 mmHg 94%
    23:00 +18°C° 0 mm 3 mps 745 mmHg 95%

    22 Agosto, Miércoles

    Tiempo Temperatura Precipitaciones Viento Presión Humedad
    00:00 +17°C° 0 mm 3 mps 745 mmHg 96%
    01:00 +17°C° 0 mm 3 mps 746 mmHg 97%
    02:00 +17°C° 0 mm 3 mps 746 mmHg 97%
    03:00 +16°C° 0 mm 3 mps 746 mmHg 97%
    04:00 +16°C° 0 mm 3 mps 746 mmHg 98%
    05:00 +16°C° 0 mm 3 mps 746 mmHg 98%
    06:00 +16°C° 0 mm 3 mps 747 mmHg 96%
    07:00 +16°C° 0 mm 3 mps 747 mmHg 93%
    08:00 +17°C° 0 mm 3 mps 747 mmHg 91%
    09:00 +18°C° 0 mm 3 mps 747 mmHg 86%
    10:00 +18°C° 0 mm 3 mps 747 mmHg 82%
    11:00 +19°C° 0 mm 3 mps 748 mmHg 78%
    12:00 +20°C° 0 mm 3 mps 748 mmHg 71%
    13:00 +21°C° 0 mm 3 mps 747 mmHg 65%
    14:00 +22°C° 0 mm 3 mps 747 mmHg 59%
    15:00 +24°C° 0 mm 3 mps 747 mmHg 60%
    16:00 +24°C° 0 mm 3 mps 747 mmHg 60%
    17:00 +24°C° 0 mm 3 mps 747 mmHg 61%
    18:00 +21°C° 0 mm 3 mps 747 mmHg 67%
    19:00 +19°C° 0 mm 2 mps 747 mmHg 74%
    20:00 +18°C° 0 mm 2 mps 747 mmHg 81%
    21:00 +17°C° 0 mm 3 mps 747 mmHg 83%
    22:00 +17°C° 0 mm 3 mps 747 mmHg 85%
    23:00 +17°C° 0 mm 3 mps 747 mmHg 87%
    Mostrar más